SCP
-0 -0 -0 0 -0 -0 -0 -0 -0 -0 -0 -0 -0 -0 -0 -0 -0 0 0 0 0 -0 0 0 0 0 0 0 0 0 0 0 0 0 0 0 0 0 0 0 0 0 0 0 0 0 0 0 0 0 0 0 0 0
-0 -0 -0 0 -0 -0 -0 -0 -0 -0 -0 -0 -0 -0 -0 -0 -0 0 0 0 0 0 0 0 0 0 0 0 0 0 0 0 0 0 0 0 0 0 0 0 0 0 0 0 0 0 0 0 0 0 0 0 0 0
-0 -0 -0 0 -0 -0 -0 -0 0 0 0 -0 -0 -0 -0 0 -0 0 0 0 0 0 0 0 0 0 0 0 0 0 0 0 0 0 0 0 0 0 0 0 0 0 0 0 0 0 0 0 0 0 0 0 0 0
-0 -0 -0 -0 0 -0 -0 -0 0 0 0 0 -0 -0 0 0 0 0 0 0 0 0 0 0 0 0 0 0 0 0 0 0 0 0 0 0 0 0 0 0 0 0 0 0 0 0 0 0 0 0 0 0 0 0
0 -0 -0 -0 0 0 -0 -0 0 0 0 0 0 -0 -0 0 0 0 -0 0 0 0 0 0 0 0 0 0 0 0 0 0 0 0 0 0 0 0 0 0 0 0 0 0 0 0 0 0 0 0 0 0 0 0
-0 -0 -0 -0 -0 0 -0 -0 0 0 -0 0 0 0 -0 -0 0 0 0 0 0 0 0 0 0 0 0 0 0 0 0 0 0 0 0 0 0 0 0 0 0 0 0 0 0 0 0 0 0 0 0 0 0 0
-0 -0 -0 -0 0 0 0 0 0 0 -0 -0 0 0 -0 -0 0 0 0 0 -0 0 0 0 0 0 0 0 0 0 0 0 0 0 0 0 0 0 0 0 0 0 0 0 0 0 0 0 0 0 0 0 0 0
-0 -0 -0 -0 0 0 0 0 0 0 0 0 0 0 0 0 0 0 0 0 0 0 0 0 0 0 0 0 0 0 0 0 0 0 0 0 0 0 0 0 0 0 0 0 0 0 0 0 0 0 0 0 0 0
0 0 0 0 -0 -0 0 0 -0 -0 -0 0 0 0 0 0 0 0 -0 -0 0 0 0 0 0 0 0 0 0 0 0 0 0 0 0 0 0 0 0 0 0 0 0 0 0 0 0 0 0 0 0 0 0 0
0 -0 0 0 -0 -0 -0 -0 -0 -0 -0 0 -0 -0 -0 0 0 0 -0 -0 0 0 0 0 0 0 0 0 0 0 0 0 0 0 0 0 0 0 0 0 0 0 0 0 0 0 0 0 0 0 0 0 0 0
-0 -0 0 -0 -0 -0 -0 -0 0 -0 0 -0 -0 -0 0 0 -0 0 0 0 0 0 0 0 0 0 0 0 0 0 0 0 0 0 0 0 0 0 0 0 0 0 0 0 0 0 0 0 0 0 -0 0 0 0
0 -0 -0 -0 -0 -0 -0 -0 -0 0 -0 -0 0 -0 -0 -0 -0 -0 -0 -0 0 0 0 0 0 0 0 0 0 0 0 0 0 0 0 0 0 0 0 0 0 0 0 0 0 0 0 0 -0 -0 0 0 0 0
0 0 0 0 0 0 -0 -0 0 0 0 0 0 -0 -0 -0 -0 -0 -0 -0 -0 -0 0 0 0 0 0 0 0 0 0 0 0 0 0 0 -0 0 0 0 0 0 0 0 0 -0 -0 -0 -0 -0 -0 0 0 -0
0 0 0 0 0 0 0 0 0 0 0 0 0 -0 -0 -0 -0 -0 0 0 0 0 0 0 0 0 0 0 0 0 0 0 0 0 0 -0 0 0 0 0 0 0 0 0 0 -0 -0 -0 -0 -0 -0 -0 -0 -0
0 0 0 0 0 0 0 0 0 0 0 0 0 0 0 0 0 0 0 0 0 0 0 0 0 0 0 0 0 0 0 0 0 0 -0 0 0 -0 -0 -0 -0 -0 -0 -0 -0 -0 -0 -0 -0 -0 -0 -0 -0 -0
0 0 0 0 0 0 0 0 0 0 0 0 0 0 0 0 0 0 0 0 0 0 0 0 0 0 0 0 0 0 0 0 0 -0 -0 0 -0 -0 -0 -0 -0 -0 -0 -0 -0 -0 -0 -0 -0 -0 0 0 0 0
0 0 0 0 0 0 0 0 0 0 0 0 0 0 0 0 0 0 0 0 0 0 0 0 0 0 0 0 0 0 0 0 -0 -0 -0 -0 -0 -0 -0 -0 -0 -0 -0 -0 -0 0 0 0 0 0 -0 0 0 0
0 0 0 0 0 0 0 0 0 0 0 0 0 0 0 0 0 0 0 0 0 0 0 0 0 0 0 0 0 0 0 -0 -0 -0 -0 -0 -0 -0 -0 -0 -0 -0 -0 -0 -0 0 0 0 0 0 0 0 0 0
0 0 0 0 0 0 0 0 0 0 0 0 0 0 0 0 0 0 0 0 0 0 0 0 0 0 0 0 0 -0 -0 -0 -0 -0 -0 -0 -0 -0 -0 -0 -0 -0 -0 -0 0 0 0 0 0 0 0 0 0 0
0 0 0 0 0 0 0 0 0 0 0 0 0 0 0 0 0 0 0 0 0 0 0 0 0 0 0 0 0 -0 -0 -0 -0 -0 -0 -0 -0 -0 -0 -0 0 0 0 0 0 0 0 0 0 0 0 0 0 0
0 0 0 0 0 0 0 0 0 0 0 0 0 0 0 0 0 0 0 0 0 0 0 0 0 0 0 0 0 -0 -0 -0 -0 0 -0 -0 -0 -0 -0 0 0 0 0 0 0 0 0 0 0 0 0 0 0 0
0 0 0 0 0 0 0 0 0 0 0 0 0 0 0 0 0 0 0 0 0 0 0 0 0 0 0 0 0 0 0 0 0 0 0 0 0 0 0 0 0 0 0 0 0 0 0 0 0 0 0 0 0 0
0 0 0 0 0 0 0 0 0 0 0 0 0 0 0 0 0 0 0 0 0 0 0 0 0 0 0 0 0 0 0 0 0 0 0 0 0 0 0 0 0 0 0 0 0 0 0 0 0 0 0 0 0 0
0 0 0 0 0 0 0 0 0 0 0 0 0 0 0 0 0 0 0 0 0 0 0 0 0 0 0 0 0 0 0 0 0 0 0 0 0 0 0 0 0 0 0 0 0 0 0 0 0 0 0 0 0 0
0 0 0 0 0 0 0 0 0 0 0 0 0 0 0 0 0 0 0 0 0 0 0 0 0 0 0 0 0 0 0 0 0 0 0 0 0 0 0 0 0 0 0 0 0 0 0 0 0 0 0 0 0 0
0 0 0 0 0 0 0 0 0 0 0 0 0 0 0 0 0 0 0 0 0 0 0 0 0 0 0 0 0 0 0 0 0 0 0 0 0 0 0 0 0 0 0 -0 0 0 0 0 0 0 0 0 0 0
0 0 0 0 0 0 0 0 0 0 0 0 0 0 0 0 0 0 0 0 0 0 0 0 0 0 0 0 0 0 0 0 0 0 0 0 0 0 0 0 0 0 0 0 0 0 0 0 0 0 0 0 0 0
0 0 0 0 0 0 0 0 0 0 0 0 0 0 0 0 0 0 0 0 0 0 0 0 0 0 0 -0 -0 0 0 0 0 0 0 0 0 0 0 0 0 0 0 0 0 0 0 0 0 0 0 0 0 0
0 0 0 0 0 0 0 0 0 0 0 0 0 0 0 0 0 0 0 0 0 0 0 0 0 0 0 0 -0 -0 -0 -0 -0 -0 -0 0 0 0 0 0 0 0 0 0 0 0 0 0 0 0 0 0 0 0
0 0 0 0 0 0 0 0 0 0 0 0 0 0 0 0 0 0 0 0 0 0 0 0 0 0 0 0 0 0 0 0 -0 -0 0 0 0 0 0 0 0 0 0 0 0 0 0 0 0 0 0 0 0 0
0 0 0 0 0 0 0 0 0 0 0 0 0 0 0 0 0 0 0 0 0 0 0 0 0 0 0 0 0 0 0 0 0 0 0 0 0 0 0 0 0 0 0 0 0 0 0 0 0 0 0 0 0 0
0 0 0 0 0 0 0 0 0 0 0 0 0 0 0 0 0 0 0 0 0 0 0 0 0 0 0 0 0 0 0 0 0 0 0 0 0 0 0 0 0 0 0 0 0 0 0 0 0 0 0 0 0 0
0 0 0 0 0 0 0 0 0 0 0 0 0 0 0 0 0 0 0 0 0 0 0 0 0 0 0 0 0 0 0 0 0 0 0 0 0 0 0 0 0 0 0 0 0 0 0 0 0 0 0 0 0 0
Wind_Speed_500mb
20 29 23 14 11 14 19 20 23 26 29 35 43 30 26 9 16 81 56 48 52 13 8 20 25 41 35 30 18 26 17 2 6 7 6 6 6 10 6 5 15 17 18 10 6 2 24 30 17 25 13 21 13 21
14 19 21 15 11 11 14 16 19 25 25 29 45 46 30 7 20 34 36 60 66 15 19 46 41 38 35 34 41 39 9 10 15 8 4 7 5 3 7 6 2 7 13 12 20 17 1 46 15 38 16 22 24 35
10 8 15 20 13 8 9 12 18 20 22 25 34 48 43 22 33 33 49 54 56 31 35 29 39 39 33 42 54 22 13 12 12 12 9 5 8 7 8 8 6 8 9 6 7 6 12 27 53 35 53 48 47 40
7 6 11 15 14 6 6 10 16 17 18 19 27 29 38 45 28 26 28 13 13 12 9 17 49 37 32 37 30 26 50 33 31 16 9 5 6 8 5 5 7 10 20 11 13 3 9 17 48 57 59 64 59 47
6 8 9 10 12 8 10 8 12 11 13 15 18 24 21 21 26 45 42 29 10 8 8 10 55 50 32 32 30 24 31 29 17 8 6 2 7 7 3 4 6 19 14 11 12 22 20 29 44 48 58 68 64 55
11 11 11 10 6 6 12 10 4 7 6 8 14 20 23 15 19 9 11 38 50 33 9 8 13 35 43 41 38 33 33 23 12 9 6 7 6 3 5 7 13 44 39 45 22 9 19 25 26 30 43 53 56 50
15 13 16 14 8 5 7 11 13 8 7 8 12 17 23 34 24 12 15 14 16 9 9 6 5 13 21 25 31 30 23 19 11 9 7 6 5 7 5 7 4 11 34 39 39 42 44 62 57 55 49 46 45 53
20 23 24 26 19 15 13 13 11 7 6 6 8 11 16 20 24 23 20 16 13 10 12 7 4 8 12 14 10 11 9 8 12 7 6 4 5 4 8 24 61 29 32 46 73 72 78 81 82 80 76 72 72 74
23 28 35 39 33 26 20 16 11 7 2 4 8 10 9 7 6 9 12 16 23 11 11 8 8 5 7 10 7 6 7 5 4 4 3 5 1 10 23 40 53 68 55 65 63 58 57 57 77 83 77 75 74 78
26 32 41 47 45 36 28 23 16 8 2 4 9 8 5 8 6 6 2 6 4 12 12 6 7 6 7 3 3 5 7 2 3 5 4 4 10 56 59 62 71 78 75 68 59 64 55 69 72 74 69 64 65 66
20 20 39 51 51 43 35 26 17 12 5 3 2 1 1 5 9 9 11 14 14 7 10 7 7 10 5 6 5 4 4 1 4 7 6 5 8 12 27 36 40 48 56 54 48 50 49 56 64 67 71 69 68 67
16 13 36 51 50 44 37 27 19 11 5 4 2 4 5 6 7 11 4 3 2 5 5 5 7 8 8 6 8 2 6 4 5 1 3 7 10 22 20 28 26 29 34 36 38 42 44 47 49 56 61 61 57 56
27 30 36 51 48 43 38 29 22 13 7 2 3 4 2 4 9 9 7 3 3 10 14 11 3 6 7 5 10 6 8 7 3 4 8 10 25 40 21 24 26 27 25 26 29 34 40 45 49 54 57 55 57 53
42 39 52 50 46 44 38 33 27 18 6 4 2 3 9 6 7 8 8 8 8 12 34 24 12 6 5 6 4 8 5 5 5 2 12 6 20 17 25 32 39 40 36 34 32 33 34 39 42 43 44 40 36 39
54 51 55 59 55 46 41 35 32 24 7 5 5 7 7 6 3 7 12 16 13 42 28 18 12 5 4 7 4 7 7 7 11 10 6 10 7 19 34 42 42 45 47 45 41 39 36 37 38 37 34 34 31 27
47 62 64 61 60 53 48 43 38 29 8 9 10 3 5 3 4 11 22 14 36 39 21 10 6 7 2 7 5 13 12 14 8 7 21 14 6 34 43 43 48 46 42 43 47 46 43 38 36 36 34 32 33 35
46 62 69 61 64 59 58 56 43 21 20 13 11 28 31 7 9 16 30 31 49 31 6 7 9 13 6 4 5 10 12 8 12 15 11 21 38 43 46 58 61 52 45 49 51 48 45 43 42 36 31 28 35 35
64 64 57 66 59 69 58 59 23 20 14 15 11 27 39 16 15 19 25 46 36 20 22 10 15 6 12 13 9 8 32 40 42 45 43 47 47 52 67 72 67 53 55 58 55 50 46 45 43 37 34 33 36 36
71 62 49 61 74 54 25 23 22 12 12 14 20 23 24 19 24 19 28 54 27 23 16 14 6 7 8 12 12 33 34 32 42 51 60 72 78 80 74 69 66 62 59 57 52 51 48 46 49 45 37 38 40 33
65 55 43 55 75 40 20 14 15 14 10 20 19 26 16 12 23 25 31 46 28 11 5 6 10 13 14 14 22 38 52 55 58 69 75 83 76 76 74 71 72 70 72 69 63 59 58 57 51 51 48 42 43 40
71 62 53 62 34 35 9 13 10 9 16 14 24 25 12 20 16 19 19 36 16 11 6 29 39 34 34 40 48 58 66 67 66 64 72 81 77 71 65 54 47 47 51 52 56 57 55 62 57 55 55 53 48 45
60 84 52 52 23 21 12 12 9 20 12 16 26 15 13 8 13 15 22 13 15 19 22 21 24 27 39 32 25 24 25 26 29 34 31 32 41 43 44 43 47 48 47 46 45 49 53 56 55 58 62 59 57 53
83 70 31 15 10 12 7 29 8 11 8 10 14 7 4 6 13 26 9 13 16 16 23 20 15 8 10 10 13 21 27 30 30 30 33 34 36 37 42 40 38 46 53 50 48 50 52 47 47 55 60 64 65 65
60 36 18 21 15 9 18 7 10 12 12 7 8 9 7 9 17 4 6 9 9 16 17 6 2 2 5 13 23 31 36 39 43 42 40 47 48 48 49 51 48 47 47 51 48 47 50 50 46 48 51 58 61 64
22 14 24 10 11 13 9 6 4 4 7 7 8 6 6 12 5 6 6 3 18 20 7 3 8 16 23 26 28 29 32 40 48 56 45 43 51 55 56 54 54 46 42 42 45 52 54 52 49 48 48 51 57 61
11 13 15 10 9 13 14 12 15 13 9 9 5 10 11 6 8 6 4 6 15 6 7 10 16 18 19 25 35 41 44 44 49 54 53 50 49 51 54 55 58 49 45 52 55 59 62 61 59 55 54 51 49 52
11 8 9 13 24 25 11 9 10 7 10 13 11 11 8 11 8 3 8 15 8 6 7 11 15 20 24 28 32 37 40 40 43 49 52 48 35 31 40 48 47 48 57 61 61 61 65 66 63 57 54 52 50 48
11 23 19 22 14 9 11 8 10 13 9 18 19 9 11 5 5 7 7 5 7 8 9 12 16 19 22 28 37 43 44 43 42 42 38 30 36 37 33 43 51 56 54 49 48 50 52 59 59 53 49 48 46 43
7 24 32 9 7 6 7 9 8 9 29 24 7 7 7 12 12 16 18 17 16 16 18 22 27 28 30 30 35 42 50 56 62 65 64 64 65 59 55 52 50 48 48 51 45 44 46 51 47 44 42 42 40 39
7 8 9 6 9 6 5 9 14 29 27 31 32 68 63 54 53 44 38 34 33 34 33 32 32 35 40 44 46 46 49 53 54 57 63 67 69 68 65 60 56 55 55 54 50 47 38 42 42 36 33 33 31 29
14 6 10 11 8 9 40 64 60 50 38 47 61 68 50 36 37 56 59 45 40 40 36 37 37 39 39 44 49 54 57 53 51 51 51 54 56 60 63 63 60 57 55 52 47 43 41 36 35 31 24 26 28 30
15 11 5 9 6 25 24 14 20 29 28 34 27 26 21 16 14 19 48 48 47 51 51 45 38 36 31 33 36 38 38 42 47 51 55 58 59 57 57 56 55 52 47 43 40 38 36 34 31 26 24 23 25 28
10 20 17 14 9 7 9 15 13 11 18 13 16 27 27 14 13 19 20 48 49 53 53 47 34 19 27 31 40 43 43 42 44 45 48 51 54 57 57 56 54 51 45 41 38 35 32 31 29 27 26 26 26 26
Wind_Direction_500mb
352 2 7 23 20 6 14 27 14 18 35 41 30 32 3 353 209 202 202 198 201 191 307 177 156 156 144 159 158 155 123 104 51 114 130 170 151 204 105 170 172 165 165 183 109 135 262 172 140 173 198 168 155 186
348 5 5 346 340 340 358 17 22 13 32 43 40 42 30 35 81 176 162 208 213 210 135 103 127 147 163 163 142 164 120 131 152 114 150 121 115 119 145 204 331 208 188 177 190 210 155 182 199 194 193 195 215 232
335 346 355 346 316 308 339 355 13 14 25 42 44 48 63 91 88 111 124 132 146 145 73 89 85 106 143 156 158 144 147 132 135 137 151 140 126 144 162 233 110 244 203 199 103 240 211 207 212 222 225 241 251 251
310 289 326 345 341 276 277 333 8 22 24 47 46 47 55 66 72 68 73 76 89 97 99 55 82 93 98 140 138 135 138 124 124 100 82 113 119 196 194 156 184 189 143 168 266 186 350 256 227 230 237 243 251 260
266 273 290 318 338 269 250 281 359 30 32 59 43 35 43 47 57 62 56 70 87 87 114 106 71 73 99 105 140 131 148 143 115 70 70 174 113 112 3 57 250 186 177 174 228 180 206 255 261 257 251 256 261 268
262 254 253 286 317 332 250 250 4 88 87 63 42 29 28 11 3 7 71 71 89 102 88 49 58 56 85 106 125 125 142 133 98 99 102 95 120 106 131 219 235 202 214 225 232 252 290 282 283 274 280 279 279 272
241 258 243 245 235 161 152 140 128 100 70 54 54 40 35 34 39 79 91 41 42 57 109 85 22 30 54 73 79 74 79 75 80 103 62 87 86 89 88 231 177 211 242 245 255 274 276 274 274 281 285 286 281 276
237 243 237 230 219 192 183 168 147 125 106 69 54 51 45 46 54 63 71 51 42 60 63 100 46 29 37 37 48 45 56 72 50 84 96 106 105 103 250 252 270 269 253 260 264 262 265 275 279 280 283 279 274 272
250 246 237 223 211 198 197 183 164 153 166 4 2 3 18 32 57 50 58 64 56 72 102 80 122 205 55 55 51 59 50 52 41 81 83 125 257 228 229 239 256 266 252 265 278 275 273 273 277 278 278 278 275 277
256 252 239 217 204 197 194 185 173 165 162 331 356 358 31 10 4 354 182 172 80 44 58 89 115 79 90 92 70 105 32 88 86 269 351 207 250 251 253 253 263 271 275 277 272 274 270 267 270 277 279 282 281 283
265 266 208 200 197 193 192 197 190 196 216 254 305 11 36 18 1 30 33 38 351 48 43 82 101 128 137 114 171 38 176 63 79 267 154 279 269 244 272 268 275 278 279 279 280 284 280 276 278 280 281 283 284 283
237 201 194 189 193 191 191 197 195 189 199 174 145 86 65 16 36 77 12 356 36 170 129 125 112 103 114 99 93 98 116 58 233 158 70 270 255 279 319 324 312 295 285 289 291 290 289 289 290 289 289 288 286 284
209 195 198 189 191 192 190 193 184 174 179 178 146 137 122 344 37 119 185 266 284 177 164 148 100 105 126 133 78 89 86 207 116 62 231 237 277 321 8 6 358 352 336 321 314 305 297 294 292 290 289 289 287 283
201 200 189 193 196 195 194 193 185 179 199 241 144 322 153 286 225 185 184 182 156 155 147 134 106 130 118 67 141 95 245 74 51 332 237 249 293 13 22 9 357 351 343 338 332 326 324 320 313 307 304 301 300 290
203 205 200 198 192 196 197 193 189 185 199 222 156 232 214 191 172 159 146 133 128 144 138 118 82 95 357 80 62 103 43 255 209 230 232 232 50 33 8 352 347 341 330 326 327 325 326 326 323 321 310 307 306 300
210 209 211 204 201 195 196 196 189 186 210 219 216 194 157 158 198 199 183 151 152 153 124 91 101 65 287 128 90 214 141 221 236 218 253 267 327 341 346 345 336 330 328 323 318 313 317 320 324 324 319 308 297 293
210 216 208 205 201 197 200 193 188 194 202 201 218 217 193 262 201 184 177 170 163 161 153 131 147 202 103 82 248 190 209 221 215 243 305 311 321 333 334 331 327 323 319 323 323 316 302 306 315 319 323 311 296 289
213 218 206 201 195 188 185 188 195 198 195 192 178 201 196 206 167 159 173 167 163 191 157 186 128 166 194 187 244 235 240 270 290 309 313 314 317 318 320 316 313 310 301 302 304 305 305 290 292 304 308 311 304 298
212 219 207 193 194 197 186 196 191 190 182 179 191 175 178 192 200 181 175 177 178 170 157 158 173 197 230 220 239 271 284 300 305 307 305 304 305 308 307 307 306 302 298 297 293 289 289 288 283 282 288 294 297 294
210 214 197 184 191 199 177 190 188 174 173 177 169 164 157 159 166 175 174 178 174 167 140 197 220 220 216 272 296 294 298 303 306 306 302 301 301 302 303 303 302 299 295 292 291 286 279 275 277 275 276 282 289 297
193 196 190 190 179 191 218 167 149 145 145 151 155 149 128 144 141 158 163 175 179 214 237 231 241 250 260 279 290 292 291 293 293 291 290 295 299 301 303 310 314 313 306 298 291 286 281 276 277 279 276 273 282 287
176 182 164 167 188 175 182 187 150 146 141 137 148 143 135 144 148 156 157 180 225 226 214 242 257 283 296 310 323 327 322 314 311 304 304 303 304 310 315 320 320 320 320 321 317 306 292 283 279 274 272 273 274 276
159 160 142 132 145 169 141 161 141 141 127 166 136 112 134 121 149 152 211 227 245 233 224 244 264 279 316 342 355 346 339 337 335 333 332 324 318 319 317 324 329 327 326 329 321 317 314 308 292 277 271 270 269 270
163 155 141 150 149 137 144 129 136 117 112 164 162 147 148 130 146 174 249 242 214 145 135 128 151 330 11 356 355 353 344 337 332 333 344 335 333 334 330 327 327 328 325 319 317 314 314 315 305 292 283 274 270 269
136 166 142 133 136 122 115 118 126 134 144 177 152 131 160 145 148 183 238 272 154 138 130 54 19 3 356 348 345 347 344 335 332 328 341 335 330 323 321 324 324 331 328 321 320 317 316 314 311 306 297 287 280 273
156 158 147 143 146 151 168 138 175 161 140 141 127 120 154 150 163 210 188 106 122 90 18 7 360 2 4 347 346 350 350 343 335 329 335 335 328 320 317 318 321 329 327 326 324 322 321 317 310 304 300 299 294 284
130 145 125 123 131 131 104 87 128 128 160 162 158 159 153 181 182 99 103 53 97 57 26 2 357 357 0 0 0 356 352 348 343 335 334 336 335 333 322 318 316 312 314 315 316 314 315 317 311 306 300 297 298 296
119 151 147 167 116 130 124 125 148 175 144 142 135 159 148 60 97 85 71 64 71 79 69 52 31 22 22 23 15 5 356 349 340 336 337 333 336 340 334 322 313 313 313 309 308 307 307 313 309 303 299 299 301 300
76 114 120 88 104 126 158 151 155 129 140 154 107 97 98 73 88 105 93 87 87 84 73 56 47 41 36 30 27 21 12 7 3 2 356 350 347 347 342 336 332 328 323 316 313 315 305 314 310 298 296 297 299 296
32 35 99 107 116 107 57 59 102 126 123 118 101 106 94 87 78 78 74 69 64 61 59 51 43 35 29 21 16 21 23 17 15 7 353 345 341 343 343 341 337 334 331 327 319 317 310 309 314 298 296 301 304 307
341 10 78 50 78 58 106 108 101 93 89 104 118 114 120 127 79 48 43 42 46 45 49 49 44 35 31 24 16 7 5 12 9 6 359 350 346 346 347 346 341 335 332 329 326 321 320 314 318 308 306 311 309 308
16 30 97 97 99 137 114 75 73 91 99 101 106 117 124 100 82 39 17 18 30 35 33 28 27 30 29 25 20 15 6 360 5 3 1 359 356 352 352 351 349 347 345 342 338 333 330 324 321 315 317 320 318 313
34 38 64 103 115 139 134 108 93 87 63 72 70 64 67 74 83 26 359 15 18 18 17 16 14 16 19 23 16 12 8 7 9 2 360 359 358 360 357 356 356 357 358 357 354 349 345 343 341 338 332 326 322 316
Wind_Speed_850mb
20 29 23 14 11 14 19 20 23 26 29 35 43 30 26 9 16 81 56 48 52 13 8 20 25 41 35 30 18 26 17 2 6 7 6 6 6 10 6 5 15 17 18 10 6 2 24 30 17 25 13 21 13 21
14 19 21 15 11 11 14 16 19 25 25 29 45 46 30 7 20 34 36 60 66 15 19 46 41 38 35 34 41 39 9 10 15 8 4 7 5 3 7 6 2 7 13 12 20 17 1 46 15 38 16 22 24 35
10 8 15 20 13 8 9 12 18 20 22 25 34 48 43 22 33 33 49 54 56 31 35 29 39 39 33 42 54 22 13 12 12 12 9 5 8 7 8 8 6 8 9 6 7 6 12 27 53 35 53 48 47 40
7 6 11 15 14 6 6 10 16 17 18 19 27 29 38 45 28 26 28 13 13 12 9 17 49 37 32 37 30 26 50 33 31 16 9 5 6 8 5 5 7 10 20 11 13 3 9 17 48 57 59 64 59 47
6 8 9 10 12 8 10 8 12 11 13 15 18 24 21 21 26 45 42 29 10 8 8 10 55 50 32 32 30 24 31 29 17 8 6 2 7 7 3 4 6 19 14 11 12 22 20 29 44 48 58 68 64 55
11 11 11 10 6 6 12 10 4 7 6 8 14 20 23 15 19 9 11 38 50 33 9 8 13 35 43 41 38 33 33 23 12 9 6 7 6 3 5 7 13 44 39 45 22 9 19 25 26 30 43 53 56 50
15 13 16 14 8 5 7 11 13 8 7 8 12 17 23 34 24 12 15 14 16 9 9 6 5 13 21 25 31 30 23 19 11 9 7 6 5 7 5 7 4 11 34 39 39 42 44 62 57 55 49 46 45 53
20 23 24 26 19 15 13 13 11 7 6 6 8 11 16 20 24 23 20 16 13 10 12 7 4 8 12 14 10 11 9 8 12 7 6 4 5 4 8 24 61 29 32 46 73 72 78 81 82 80 76 72 72 74
23 28 35 39 33 26 20 16 11 7 2 4 8 10 9 7 6 9 12 16 23 11 11 8 8 5 7 10 7 6 7 5 4 4 3 5 1 10 23 40 53 68 55 65 63 58 57 57 77 83 77 75 74 78
26 32 41 47 45 36 28 23 16 8 2 4 9 8 5 8 6 6 2 6 4 12 12 6 7 6 7 3 3 5 7 2 3 5 4 4 10 56 59 62 71 78 75 68 59 64 55 69 72 74 69 64 65 66
20 20 39 51 51 43 35 26 17 12 5 3 2 1 1 5 9 9 11 14 14 7 10 7 7 10 5 6 5 4 4 1 4 7 6 5 8 12 27 36 40 48 56 54 48 50 49 56 64 67 71 69 68 67
16 13 36 51 50 44 37 27 19 11 5 4 2 4 5 6 7 11 4 3 2 5 5 5 7 8 8 6 8 2 6 4 5 1 3 7 10 22 20 28 26 29 34 36 38 42 44 47 49 56 61 61 57 56
27 30 36 51 48 43 38 29 22 13 7 2 3 4 2 4 9 9 7 3 3 10 14 11 3 6 7 5 10 6 8 7 3 4 8 10 25 40 21 24 26 27 25 26 29 34 40 45 49 54 57 55 57 53
42 39 52 50 46 44 38 33 27 18 6 4 2 3 9 6 7 8 8 8 8 12 34 24 12 6 5 6 4 8 5 5 5 2 12 6 20 17 25 32 39 40 36 34 32 33 34 39 42 43 44 40 36 39
54 51 55 59 55 46 41 35 32 24 7 5 5 7 7 6 3 7 12 16 13 42 28 18 12 5 4 7 4 7 7 7 11 10 6 10 7 19 34 42 42 45 47 45 41 39 36 37 38 37 34 34 31 27
47 62 64 61 60 53 48 43 38 29 8 9 10 3 5 3 4 11 22 14 36 39 21 10 6 7 2 7 5 13 12 14 8 7 21 14 6 34 43 43 48 46 42 43 47 46 43 38 36 36 34 32 33 35
46 62 69 61 64 59 58 56 43 21 20 13 11 28 31 7 9 16 30 31 49 31 6 7 9 13 6 4 5 10 12 8 12 15 11 21 38 43 46 58 61 52 45 49 51 48 45 43 42 36 31 28 35 35
64 64 57 66 59 69 58 59 23 20 14 15 11 27 39 16 15 19 25 46 36 20 22 10 15 6 12 13 9 8 32 40 42 45 43 47 47 52 67 72 67 53 55 58 55 50 46 45 43 37 34 33 36 36
71 62 49 61 74 54 25 23 22 12 12 14 20 23 24 19 24 19 28 54 27 23 16 14 6 7 8 12 12 33 34 32 42 51 60 72 78 80 74 69 66 62 59 57 52 51 48 46 49 45 37 38 40 33
65 55 43 55 75 40 20 14 15 14 10 20 19 26 16 12 23 25 31 46 28 11 5 6 10 13 14 14 22 38 52 55 58 69 75 83 76 76 74 71 72 70 72 69 63 59 58 57 51 51 48 42 43 40
71 62 53 62 34 35 9 13 10 9 16 14 24 25 12 20 16 19 19 36 16 11 6 29 39 34 34 40 48 58 66 67 66 64 72 81 77 71 65 54 47 47 51 52 56 57 55 62 57 55 55 53 48 45
60 84 52 52 23 21 12 12 9 20 12 16 26 15 13 8 13 15 22 13 15 19 22 21 24 27 39 32 25 24 25 26 29 34 31 32 41 43 44 43 47 48 47 46 45 49 53 56 55 58 62 59 57 53
83 70 31 15 10 12 7 29 8 11 8 10 14 7 4 6 13 26 9 13 16 16 23 20 15 8 10 10 13 21 27 30 30 30 33 34 36 37 42 40 38 46 53 50 48 50 52 47 47 55 60 64 65 65
60 36 18 21 15 9 18 7 10 12 12 7 8 9 7 9 17 4 6 9 9 16 17 6 2 2 5 13 23 31 36 39 43 42 40 47 48 48 49 51 48 47 47 51 48 47 50 50 46 48 51 58 61 64
22 14 24 10 11 13 9 6 4 4 7 7 8 6 6 12 5 6 6 3 18 20 7 3 8 16 23 26 28 29 32 40 48 56 45 43 51 55 56 54 54 46 42 42 45 52 54 52 49 48 48 51 57 61
11 13 15 10 9 13 14 12 15 13 9 9 5 10 11 6 8 6 4 6 15 6 7 10 16 18 19 25 35 41 44 44 49 54 53 50 49 51 54 55 58 49 45 52 55 59 62 61 59 55 54 51 49 52
11 8 9 13 24 25 11 9 10 7 10 13 11 11 8 11 8 3 8 15 8 6 7 11 15 20 24 28 32 37 40 40 43 49 52 48 35 31 40 48 47 48 57 61 61 61 65 66 63 57 54 52 50 48
11 23 19 22 14 9 11 8 10 13 9 18 19 9 11 5 5 7 7 5 7 8 9 12 16 19 22 28 37 43 44 43 42 42 38 30 36 37 33 43 51 56 54 49 48 50 52 59 59 53 49 48 46 43
7 24 32 9 7 6 7 9 8 9 29 24 7 7 7 12 12 16 18 17 16 16 18 22 27 28 30 30 35 42 50 56 62 65 64 64 65 59 55 52 50 48 48 51 45 44 46 51 47 44 42 42 40 39
7 8 9 6 9 6 5 9 14 29 27 31 32 68 63 54 53 44 38 34 33 34 33 32 32 35 40 44 46 46 49 53 54 57 63 67 69 68 65 60 56 55 55 54 50 47 38 42 42 36 33 33 31 29
14 6 10 11 8 9 40 64 60 50 38 47 61 68 50 36 37 56 59 45 40 40 36 37 37 39 39 44 49 54 57 53 51 51 51 54 56 60 63 63 60 57 55 52 47 43 41 36 35 31 24 26 28 30
15 11 5 9 6 25 24 14 20 29 28 34 27 26 21 16 14 19 48 48 47 51 51 45 38 36 31 33 36 38 38 42 47 51 55 58 59 57 57 56 55 52 47 43 40 38 36 34 31 26 24 23 25 28
10 20 17 14 9 7 9 15 13 11 18 13 16 27 27 14 13 19 20 48 49 53 53 47 34 19 27 31 40 43 43 42 44 45 48 51 54 57 57 56 54 51 45 41 38 35 32 31 29 27 26 26 26 26
Wind_Direction_850mb
352 2 7 23 20 6 14 27 14 18 35 41 30 32 3 353 209 202 202 198 201 191 307 177 156 156 144 159 158 155 123 104 51 114 130 170 151 204 105 170 172 165 165 183 109 135 262 172 140 173 198 168 155 186
348 5 5 346 340 340 358 17 22 13 32 43 40 42 30 35 81 176 162 208 213 210 135 103 127 147 163 163 142 164 120 131 152 114 150 121 115 119 145 204 331 208 188 177 190 210 155 182 199 194 193 195 215 232
335 346 355 346 316 308 339 355 13 14 25 42 44 48 63 91 88 111 124 132 146 145 73 89 85 106 143 156 158 144 147 132 135 137 151 140 126 144 162 233 110 244 203 199 103 240 211 207 212 222 225 241 251 251
310 289 326 345 341 276 277 333 8 22 24 47 46 47 55 66 72 68 73 76 89 97 99 55 82 93 98 140 138 135 138 124 124 100 82 113 119 196 194 156 184 189 143 168 266 186 350 256 227 230 237 243 251 260
266 273 290 318 338 269 250 281 359 30 32 59 43 35 43 47 57 62 56 70 87 87 114 106 71 73 99 105 140 131 148 143 115 70 70 174 113 112 3 57 250 186 177 174 228 180 206 255 261 257 251 256 261 268
262 254 253 286 317 332 250 250 4 88 87 63 42 29 28 11 3 7 71 71 89 102 88 49 58 56 85 106 125 125 142 133 98 99 102 95 120 106 131 219 235 202 214 225 232 252 290 282 283 274 280 279 279 272
241 258 243 245 235 161 152 140 128 100 70 54 54 40 35 34 39 79 91 41 42 57 109 85 22 30 54 73 79 74 79 75 80 103 62 87 86 89 88 231 177 211 242 245 255 274 276 274 274 281 285 286 281 276
237 243 237 230 219 192 183 168 147 125 106 69 54 51 45 46 54 63 71 51 42 60 63 100 46 29 37 37 48 45 56 72 50 84 96 106 105 103 250 252 270 269 253 260 264 262 265 275 279 280 283 279 274 272
250 246 237 223 211 198 197 183 164 153 166 4 2 3 18 32 57 50 58 64 56 72 102 80 122 205 55 55 51 59 50 52 41 81 83 125 257 228 229 239 256 266 252 265 278 275 273 273 277 278 278 278 275 277
256 252 239 217 204 197 194 185 173 165 162 331 356 358 31 10 4 354 182 172 80 44 58 89 115 79 90 92 70 105 32 88 86 269 351 207 250 251 253 253 263 271 275 277 272 274 270 267 270 277 279 282 281 283
265 266 208 200 197 193 192 197 190 196 216 254 305 11 36 18 1 30 33 38 351 48 43 82 101 128 137 114 171 38 176 63 79 267 154 279 269 244 272 268 275 278 279 279 280 284 280 276 278 280 281 283 284 283
237 201 194 189 193 191 191 197 195 189 199 174 145 86 65 16 36 77 12 356 36 170 129 125 112 103 114 99 93 98 116 58 233 158 70 270 255 279 319 324 312 295 285 289 291 290 289 289 290 289 289 288 286 284
209 195 198 189 191 192 190 193 184 174 179 178 146 137 122 344 37 119 185 266 284 177 164 148 100 105 126 133 78 89 86 207 116 62 231 237 277 321 8 6 358 352 336 321 314 305 297 294 292 290 289 289 287 283
201 200 189 193 196 195 194 193 185 179 199 241 144 322 153 286 225 185 184 182 156 155 147 134 106 130 118 67 141 95 245 74 51 332 237 249 293 13 22 9 357 351 343 338 332 326 324 320 313 307 304 301 300 290
203 205 200 198 192 196 197 193 189 185 199 222 156 232 214 191 172 159 146 133 128 144 138 118 82 95 357 80 62 103 43 255 209 230 232 232 50 33 8 352 347 341 330 326 327 325 326 326 323 321 310 307 306 300
210 209 211 204 201 195 196 196 189 186 210 219 216 194 157 158 198 199 183 151 152 153 124 91 101 65 287 128 90 214 141 221 236 218 253 267 327 341 346 345 336 330 328 323 318 313 317 320 324 324 319 308 297 293
210 216 208 205 201 197 200 193 188 194 202 201 218 217 193 262 201 184 177 170 163 161 153 131 147 202 103 82 248 190 209 221 215 243 305 311 321 333 334 331 327 323 319 323 323 316 302 306 315 319 323 311 296 289
213 218 206 201 195 188 185 188 195 198 195 192 178 201 196 206 167 159 173 167 163 191 157 186 128 166 194 187 244 235 240 270 290 309 313 314 317 318 320 316 313 310 301 302 304 305 305 290 292 304 308 311 304 298
212 219 207 193 194 197 186 196 191 190 182 179 191 175 178 192 200 181 175 177 178 170 157 158 173 197 230 220 239 271 284 300 305 307 305 304 305 308 307 307 306 302 298 297 293 289 289 288 283 282 288 294 297 294
210 214 197 184 191 199 177 190 188 174 173 177 169 164 157 159 166 175 174 178 174 167 140 197 220 220 216 272 296 294 298 303 306 306 302 301 301 302 303 303 302 299 295 292 291 286 279 275 277 275 276 282 289 297
193 196 190 190 179 191 218 167 149 145 145 151 155 149 128 144 141 158 163 175 179 214 237 231 241 250 260 279 290 292 291 293 293 291 290 295 299 301 303 310 314 313 306 298 291 286 281 276 277 279 276 273 282 287
176 182 164 167 188 175 182 187 150 146 141 137 148 143 135 144 148 156 157 180 225 226 214 242 257 283 296 310 323 327 322 314 311 304 304 303 304 310 315 320 320 320 320 321 317 306 292 283 279 274 272 273 274 276
159 160 142 132 145 169 141 161 141 141 127 166 136 112 134 121 149 152 211 227 245 233 224 244 264 279 316 342 355 346 339 337 335 333 332 324 318 319 317 324 329 327 326 329 321 317 314 308 292 277 271 270 269 270
163 155 141 150 149 137 144 129 136 117 112 164 162 147 148 130 146 174 249 242 214 145 135 128 151 330 11 356 355 353 344 337 332 333 344 335 333 334 330 327 327 328 325 319 317 314 314 315 305 292 283 274 270 269
136 166 142 133 136 122 115 118 126 134 144 177 152 131 160 145 148 183 238 272 154 138 130 54 19 3 356 348 345 347 344 335 332 328 341 335 330 323 321 324 324 331 328 321 320 317 316 314 311 306 297 287 280 273
156 158 147 143 146 151 168 138 175 161 140 141 127 120 154 150 163 210 188 106 122 90 18 7 360 2 4 347 346 350 350 343 335 329 335 335 328 320 317 318 321 329 327 326 324 322 321 317 310 304 300 299 294 284
130 145 125 123 131 131 104 87 128 128 160 162 158 159 153 181 182 99 103 53 97 57 26 2 357 357 0 0 0 356 352 348 343 335 334 336 335 333 322 318 316 312 314 315 316 314 315 317 311 306 300 297 298 296
119 151 147 167 116 130 124 125 148 175 144 142 135 159 148 60 97 85 71 64 71 79 69 52 31 22 22 23 15 5 356 349 340 336 337 333 336 340 334 322 313 313 313 309 308 307 307 313 309 303 299 299 301 300
76 114 120 88 104 126 158 151 155 129 140 154 107 97 98 73 88 105 93 87 87 84 73 56 47 41 36 30 27 21 12 7 3 2 356 350 347 347 342 336 332 328 323 316 313 315 305 314 310 298 296 297 299 296
32 35 99 107 116 107 57 59 102 126 123 118 101 106 94 87 78 78 74 69 64 61 59 51 43 35 29 21 16 21 23 17 15 7 353 345 341 343 343 341 337 334 331 327 319 317 310 309 314 298 296 301 304 307
341 10 78 50 78 58 106 108 101 93 89 104 118 114 120 127 79 48 43 42 46 45 49 49 44 35 31 24 16 7 5 12 9 6 359 350 346 346 347 346 341 335 332 329 326 321 320 314 318 308 306 311 309 308
16 30 97 97 99 137 114 75 73 91 99 101 106 117 124 100 82 39 17 18 30 35 33 28 27 30 29 25 20 15 6 360 5 3 1 359 356 352 352 351 349 347 345 342 338 333 330 324 321 315 317 320 318 313
34 38 64 103 115 139 134 108 93 87 63 72 70 64 67 74 83 26 359 15 18 18 17 16 14 16 19 23 16 12 8 7 9 2 360 359 358 360 357 356 356 357 358 357 354 349 345 343 341 338 332 326 322 316